Flag for U.S.A. Weather past 2 weeks in Jackson, Wyoming, U.S.A.

Now
28 °F

Clear.


Feels Like: 20 °F
Forecast: 36 / 65 °F
Wind: 9 mph from North

Location: Jackson Hole

Current Time: Oct 25, 2014 at 3:03:28 AM

Latest Report: Oct 25, 2014 at 2:35 AM


Visibility: 10 mi

Pressure: 30.23 "Hg

Humidity: 86%

Dew point: 25 °F

Location of JacksonLocation

Historic Weather in Jackson — Graph

°F

Jackson temperature yesterday

Maximum temperature yesterday: 66 °F (at 1:52 PM)
Minimum temperature yesterday: 37 °F (at 11:35 PM)
Average temperature yesterday: 49 °F

Past Weeks' High & Low Weather Summary

 TemperatureHumidityPressure
High68 °F (Oct 20, 3:51 PM)100% (Oct 11, 2:55 AM)30.30 "Hg (Oct 11, 2:55 AM)
Low21 °F (Oct 13, 3:55 AM)19% (Oct 15, 5:00 PM)29.86 "Hg (Oct 11, 10:55 PM)
Average39 °F69%30.14 "Hg
* Reported Oct 10 1:15 AM — Oct 25 1:55 AM, Jackson, Weather by CustomWeather, © 2014

Note: Actual official high and low records may vary slightly from our data, if they occured in-between our weather recording intervals... More about our weather records

Advertising

Jackson weather history for previous 24 hours

 ConditionsComfort  
Time TempWeatherWind HumidityBarometerVisibility
1:55 AM
Oct 25
30 °FClear.7 mph86%30.24 "Hg10 mi
1:35 AM30 °FClear.9 mph86%30.24 "Hg10 mi
1:15 AM30 °FClear.7 mph86%30.23 "Hg10 mi
12:55 AM32 °FClear.6 mph80%30.23 "Hg10 mi
12:35 AM32 °FClear.3 mph75%30.23 "Hg10 mi
11:55 PM
Oct 24
39 °FClear.No wind61%30.23 "Hg10 mi
11:35 PM37 °FClear.3 mph65%30.23 "Hg10 mi
11:15 PM39 °FClear.No wind61%30.23 "Hg10 mi
10:55 PM39 °FClear.5 mph61%30.22 "Hg10 mi
10:35 PM41 °FClear.No wind57%30.22 "Hg10 mi
10:15 PM41 °FClear.No wind57%30.22 "Hg10 mi
9:55 PM43 °FClear.No wind53%30.22 "Hg10 mi
9:15 PM45 °FClear.No wind49%30.21 "Hg10 mi
8:55 PM45 °FClear.No wind49%30.21 "Hg10 mi
7:53 PM48 °FClear.9 mph43%30.20 "Hg10 mi
6:52 PM54 °FSunny.9 mph35%30.19 "Hg10 mi
5:52 PM63 °FSunny.12 mph25%30.17 "Hg10 mi
4:53 PM64 °FSunny.16 mph22%30.17 "Hg10 mi
3:53 PM66 °FSunny.17 mph19%30.17 "Hg10 mi
2:51 PM64 °FSunny.22 mph21%30.16 "Hg10 mi
1:52 PM66 °FMore clouds than sun.18 mph21%30.17 "Hg10 mi
12:51 PM63 °FPartly sunny.18 mph27%30.19 "Hg10 mi
11:51 AM57 °FPartly sunny.10 mph36%30.21 "Hg10 mi
9:52 AM50 °FPartly sunny.8 mph50%30.21 "Hg10 mi
8:55 AM45 °FPartly sunny.7 mph61%30.20 "Hg10 mi
7:56 AM46 °FPassing clouds.8 mph53%30.18 "Hg10 mi
7:02 AM46 °FPassing clouds.7 mph53%30.18 "Hg10 mi
6:35 AM46 °FOvercast.9 mph53%30.18 "Hg10 mi
6:15 AM48 °FOvercast.3 mph50%30.17 "Hg10 mi
5:55 AM48 °FOvercast.7 mph50%30.17 "Hg10 mi
5:35 AM48 °FOvercast.7 mph50%30.17 "Hg10 mi
5:15 AM48 °FOvercast.7 mph50%30.18 "Hg10 mi
4:55 AM48 °FOvercast.9 mph46%30.17 "Hg10 mi
4:35 AM48 °FOvercast.7 mph50%30.17 "Hg10 mi
4:15 AM48 °FOvercast.12 mph46%30.17 "Hg10 mi
3:55 AM48 °FOvercast.9 mph46%30.16 "Hg10 mi
3:35 AM48 °FOvercast.9 mph46%30.17 "Hg10 mi
3:15 AM48 °FOvercast.10 mph46%30.17 "Hg10 mi
Weather by CustomWeather, © 2014

See weather overviewHow to use our weather pages